DB5ZQ Weather Reports


time (UTC)temp
C
wind
direction
speed
KPH
gust
KPH
rain 1hr
cm
rain 24hr
cm
rain mn
cm
humidity
%
barometer
mb
20260507164048 16 315 0.0 1.6 0.00 0.03 0.03 67 1011.4
20260507163547 16 33 0.0 0.0 0.00 0.03 0.03 67 1011.4
20260507163047 16 33 0.0 6.4 0.00 0.03 0.03 66 1011.4
20260507162547 16 50 0.0 3.2 0.00 0.03 0.03 64 1011.4
20260507162047 16 28 0.0 3.2 0.00 0.03 0.03 63 1011.3
20260507161546 16 19 1.6 3.2 0.00 0.03 0.03 62 1011.3
20260507161046 16 19 0.0 4.8 0.00 0.03 0.03 62 1011.3
20260507160546 16 33 1.6 3.2 0.00 0.03 0.03 62 1011.3
20260507160045 16 22 0.0 3.2 0.00 0.03 0.03 62 1011.3
20260507155545 16 30 0.0 1.6 0.00 0.03 0.03 63 1011.2
20260507155045 16 39 0.0 4.8 0.00 0.03 0.03 62 1011.2
20260507154545 16 358 0.0 4.8 0.00 0.03 0.03 62 1011.2
20260507154044 16 23 3.2 4.8 0.00 0.15 0.03 62 1011.2
20260507153544 16 5 0.0 6.4 0.00 0.15 0.03 62 1011.1
20260507153044 16 348 0.0 6.4 0.00 0.15 0.03 63 1011.2
20260507152543 16 330 0.0 4.8 0.00 0.15 0.03 62 1011.1
20260507152043 16 26 0.0 3.2 0.00 0.15 0.03 62 1011.1
20260507151543 16 75 1.6 6.4 0.00 0.15 0.03 62 1011.1
20260507151043 16 116 1.6 4.8 0.00 0.15 0.03 61 1011.1
20260507150542 16 158 1.6 6.4 0.00 0.15 0.03 61 1011.1
20260507150043 16 163 3.2 6.4 0.00 0.15 0.03 60 1011.1
20260507145542 16 36 0.0 4.8 0.00 0.15 0.03 60 1011.1
20260507145041 16 2 1.6 4.8 0.00 0.15 0.03 60 1011.1
20260507144541 16 109 0.0 4.8 0.00 0.15 0.03 60 1011.1
20260507144041 16 150 0.0 4.8 0.00 0.15 0.03 60 1011.0
20260507143541 16 108 1.6 4.8 0.00 0.15 0.03 60 1011.0
20260507143040 16 9 0.0 4.8 0.00 0.15 0.03 60 1011.0
20260507142540 16 106 0.0 3.2 0.00 0.15 0.03 61 1011.0
20260507142040 16 104 0.0 6.4 0.00 0.15 0.03 61 1011.1
20260507141539 16 28 0.0 3.2 0.00 0.15 0.03 63 1011.1
20260507141039 15 106 0.0 3.2 0.00 0.15 0.03 64 1011.1
20260507140539 15 33 0.0 3.2 0.00 0.15 0.03 64 1011.1
20260507140039 15 171 1.6 6.4 0.00 0.15 0.03 63 1011.2
20260507135538 15 129 3.2 3.2 0.00 0.15 0.03 63 1011.2
20260507135038 15 130 0.0 0.0 0.00 0.15 0.03 63 1011.2
20260507134538 15 111 0.0 3.2 0.00 0.15 0.03 63 1011.1
20260507134037 16 140 3.2 4.8 0.00 0.15 0.03 62 1011.2
20260507133537 16 137 3.2 4.8 0.00 0.15 0.03 62 1011.1
20260507133037 16 45 0.0 6.4 0.00 0.15 0.03 62 1011.1
20260507132537 16 163 4.8 6.4 0.00 0.15 0.03 62 1011.1
20260507132036 16 106 1.6 4.8 0.00 0.15 0.03 62 1011.1
20260507131536 16 85 1.6 4.8 0.00 0.15 0.03 62 1011.1
20260507131036 16 178 0.0 0.0 0.00 0.15 0.03 63 1011.0
20260507130536 16 178 0.0 3.2 0.00 0.15 0.03 64 1011.0
20260507130035 16 36 1.6 6.4 0.00 0.15 0.03 63 1010.9
20260507125535 16 115 0.0 3.2 0.00 0.15 0.03 63 1010.9
20260507125035 16 21 1.6 6.4 0.00 0.15 0.03 63 1010.8
20260507124534 16 36 0.0 4.8 0.00 0.15 0.03 63 1010.8
20260507124034 16 208 0.0 6.4 0.00 0.15 0.03 63 1010.9
20260507123534 16 106 0.0 3.2 0.00 0.15 0.03 63 1010.9
20260507123034 16 14 0.0 3.2 0.00 0.15 0.03 62 1010.8
20260507122533 16 5 3.2 8.0 0.00 0.15 0.03 62 1010.8
20260507122033 16 127 4.8 8.0 0.00 0.15 0.03 62 1010.7
20260507121533 16 26 0.0 4.8 0.00 0.15 0.03 63 1010.7
20260507121032 16 125 3.2 11.3 0.00 0.15 0.03 63 1010.6
20260507120532 16 30 0.0 0.0 0.00 0.15 0.03 64 1010.6
20260507120032 15 112 0.0 6.4 0.00 0.15 0.03 64 1010.6
20260507115532 15 39 1.6 6.4 0.00 0.15 0.03 65 1010.7
20260507115031 15 164 6.4 6.4 0.00 0.15 0.03 66 1010.7
20260507114531 15 101 0.0 4.8 0.00 0.15 0.03 67 1010.7
20260507114031 15 91 1.6 4.8 0.00 0.15 0.03 67 1010.7
20260507113530 15 119 1.6 8.0 0.00 0.15 0.03 68 1010.6
20260507113030 15 95 3.2 8.0 0.00 0.15 0.03 68 1010.6
20260507112530 15 108 0.0 6.4 0.00 0.15 0.03 68 1010.6
20260507112030 15 351 0.0 3.2 0.00 0.15 0.03 68 1010.6
20260507111529 15 348 1.6 8.0 0.00 0.15 0.03 67 1010.6
20260507111029 15 46 1.6 6.4 0.00 0.15 0.03 68 1010.6
20260507110529 15 53 0.0 6.4 0.00 0.15 0.03 68 1010.6
20260507110028 15 147 1.6 6.4 0.00 0.15 0.03 68 1010.6
20260507105528 15 67 0.0 11.3 0.00 0.15 0.03 68 1010.6
20260507105028 15 82 1.6 9.7 0.00 0.15 0.03 67 1010.5
20260507104528 15 264 0.0 8.0 0.00 0.15 0.03 68 1010.6
20260507104027 15 53 0.0 4.8 0.00 0.15 0.03 69 1010.5
20260507103527 15 108 0.0 0.0 0.00 0.15 0.03 69 1010.6
20260507103027 14 108 0.0 0.0 0.00 0.15 0.03 70 1010.6
20260507102526 14 345 0.0 4.8 0.00 0.15 0.03 70 1010.6
20260507102026 14 174 1.6 4.8 0.00 0.15 0.03 70 1010.6
20260507101526 14 85 0.0 6.4 0.00 0.15 0.03 71 1010.5
20260507101026 14 16 1.6 4.8 0.00 0.15 0.03 71 1010.5
20260507100525 14 68 0.0 4.8 0.00 0.15 0.03 71 1010.5
20260507100025 14 42 0.0 4.8 0.00 0.15 0.03 71 1010.5
20260507095525 13 345 3.2 3.2 0.00 0.15 0.03 71 1010.4
20260507095024 14 143 1.6 3.2 0.00 0.15 0.03 71 1010.4
20260507094524 13 92 0.0 4.8 0.00 0.15 0.03 71 1010.4
20260507094024 13 46 1.6 4.8 0.00 0.15 0.03 71 1010.3
20260507093524 14 8 0.0 8.0 0.00 0.15 0.03 71 1010.2
20260507093023 13 99 0.0 4.8 0.00 0.15 0.03 71 1010.2
20260507092523 13 284 0.0 6.4 0.00 0.15 0.03 71 1010.1
20260507092023 13 127 1.6 9.7 0.00 0.15 0.03 71 1010.1
20260507091522 13 36 1.6 6.4 0.00 0.15 0.03 71 1010.0
20260507091022 13 75 3.2 8.0 0.00 0.15 0.03 71 1010.0
20260507090522 13 153 4.8 9.7 0.00 0.15 0.03 71 1010.0
20260507090022 13 175 4.8 6.4 0.00 0.15 0.03 71 1009.9
20260507085521 14 60 1.6 4.8 0.00 0.15 0.03 71 1009.9
20260507085021 13 220 0.0 9.7 0.00 0.15 0.03 70 1009.9
20260507084521 14 7 0.0 11.3 0.00 0.15 0.03 70 1009.8
20260507084020 13 331 3.2 4.8 0.00 0.15 0.03 70 1009.9
20260507083520 13 130 0.0 6.4 0.00 0.15 0.03 70 1009.8
20260507083020 13 84 0.0 4.8 0.00 0.15 0.03 71 1009.8
20260507082520 13 358 0.0 11.3 0.00 0.15 0.03 71 1009.8
20260507082019 13 87 0.0 9.7 0.00 0.15 0.03 71 1009.7
20260507081519 13 161 3.2 6.4 0.00 0.15 0.03 71 1009.8
20260507081019 13 337 3.2 11.3 0.00 0.15 0.03 71 1009.7
20260507080518 13 143 0.0 11.3 0.00 0.15 0.03 71 1009.6
20260507080018 13 116 1.6 11.3 0.00 0.15 0.03 71 1009.6
20260507075518 13 175 3.2 9.7 0.00 0.15 0.03 71 1009.5
20260507075018 13 189 1.6 12.9 0.00 0.15 0.03 71 1009.4
20260507074517 13 189 4.8 11.3 0.00 0.15 0.03 72 1009.3
20260507074017 13 85 0.0 8.0 0.00 0.15 0.03 72 1009.3
20260507073517 13 23 0.0 8.0 0.00 0.15 0.03 73 1009.3
20260507073017 13 167 4.8 6.4 0.00 0.15 0.03 73 1009.2
20260507072516 13 312 0.0 8.0 0.00 0.15 0.03 73 1009.1
20260507072016 13 87 0.0 8.0 0.00 0.15 0.03 73 1009.0
20260507071516 13 30 0.0 6.4 0.00 0.15 0.03 73 1009.0
20260507071015 13 70 0.0 8.0 0.00 0.15 0.03 73 1009.0
20260507070515 13 172 8.0 8.0 0.00 0.15 0.03 73 1009.1
20260507070015 13 106 1.6 6.4 0.00 0.15 0.03 72 1008.9
20260507065515 13 129 0.0 8.0 0.00 0.15 0.03 72 1008.9
20260507065014 13 133 4.8 4.8 0.00 0.15 0.03 72 1008.9
20260507064514 13 59 0.0 9.7 0.00 0.15 0.03 72 1008.9
20260507064014 13 84 0.0 1.6 0.00 0.15 0.03 73 1008.8
20260507063513 13 53 0.0 4.8 0.00 0.15 0.03 73 1008.8
20260507063013 13 153 0.0 0.0 0.00 0.15 0.03 73 1008.5
20260507062513 13 153 0.0 0.0 0.00 0.15 0.03 74 1008.5
20260507062013 13 153 0.0 4.8 0.00 0.15 0.03 74 1008.5
20260507061512 12 153 1.6 4.8 0.00 0.15 0.03 75 1008.5
20260507061012 12 137 0.0 3.2 0.00 0.15 0.03 75 1008.4
20260507060512 12 208 0.0 6.4 0.00 0.15 0.03 75 1008.3
20260507060011 12 56 0.0 0.0 0.00 0.15 0.03 75 1008.3
20260507055511 12 56 0.0 6.4 0.00 0.15 0.03 75 1008.2
20260507055011 12 135 3.2 9.7 0.00 0.15 0.03 75 1008.2
20260507054511 12 123 0.0 6.4 0.00 0.15 0.03 75 1008.2
20260507054010 12 32 0.0 0.0 0.00 0.15 0.03 75 1008.1
20260507053510 12 32 0.0 0.0 0.00 0.15 0.03 76 1008.1
20260507053010 12 32 0.0 0.0 0.00 0.15 0.03 75 1008.0
20260507052509 12 32 0.0 0.0 0.00 0.15 0.03 76 1007.9
20260507052009 12 32 0.0 0.0 0.00 0.15 0.03 75 1007.9
20260507051509 12 32 0.0 0.0 0.00 0.15 0.03 76 1007.9
20260507051009 12 32 0.0 0.0 0.00 0.15 0.03 76 1007.7
20260507050508 12 32 0.0 1.6 0.00 0.15 0.03 76 1007.6
20260507050008 12 118 0.0 0.0 0.00 0.15 0.03 76 1007.5
20260507045508 12 118 0.0 0.0 0.00 0.15 0.03 76 1007.4
20260507045007 12 118 0.0 0.0 0.00 0.15 0.03 76 1007.4
20260507044507 12 118 0.0 0.0 0.00 0.15 0.03 76 1007.3
20260507044007 12 118 0.0 0.0 0.00 0.15 0.03 76 1007.3
20260507043507 12 118 0.0 0.0 0.00 0.15 0.03 76 1007.2
20260507043006 12 118 0.0 0.0 0.00 0.15 0.03 76 1007.1
20260507042506 12 118 0.0 0.0 0.00 0.15 0.03 77 1007.1
20260507042006 12 118 0.0 0.0 0.00 0.15 0.03 77 1007.0
20260507041505 12 118 0.0 0.0 0.00 0.15 0.03 77 1006.9
20260507041005 13 118 0.0 0.0 0.00 0.15 0.03 77 1006.9
20260507040505 12 118 0.0 0.0 0.00 0.15 0.03 77 1006.9
20260507040005 13 118 0.0 0.0 0.00 0.15 0.03 77 1006.8
20260507035504 13 118 0.0 0.0 0.00 0.15 0.03 77 1006.8
20260507035004 13 118 0.0 0.0 0.00 0.15 0.03 78 1006.8
20260507034504 13 118 0.0 0.0 0.00 0.15 0.03 77 1006.8
20260507034004 12 118 0.0 0.0 0.00 0.15 0.03 77 1006.7
20260507033503 13 118 0.0 0.0 0.00 0.15 0.03 77 1006.7
20260507033003 13 118 0.0 0.0 0.00 0.15 0.03 78 1006.7
20260507032503 13 118 0.0 0.0 0.00 0.15 0.03 78 1006.7
20260507032002 13 118 0.0 0.0 0.00 0.15 0.03 78 1006.7
20260507031502 12 118 0.0 0.0 0.00 0.15 0.03 78 1006.6
20260507031002 12 118 0.0 0.0 0.00 0.15 0.03 78 1006.6
20260507030501 12 118 0.0 0.0 0.00 0.15 0.03 78 1006.5
20260507030001 12 118 0.0 0.0 0.00 0.15 0.03 78 1006.5
20260507025501 12 118 0.0 6.4 0.00 0.15 0.03 78 1006.5
20260507025001 12 165 3.2 8.0 0.00 0.15 0.03 78 1006.5
20260507024500 13 118 0.0 6.4 0.00 0.15 0.03 78 1006.5
20260507024000 13 144 0.0 3.2 0.00 0.15 0.03 78 1006.5
20260507023500 13 274 0.0 0.0 0.00 0.15 0.03 78 1006.5
20260507023000 13 274 0.0 0.0 0.00 0.15 0.03 78 1006.4
20260507022459 13 274 0.0 0.0 0.03 0.15 0.03 78 1006.4
20260507021959 13 274 0.0 0.0 0.03 0.15 0.03 78 1006.4
20260507021459 13 274 0.0 0.0 0.03 0.15 0.03 78 1006.4
20260507020958 13 274 0.0 0.0 0.03 0.15 0.03 78 1006.3
20260507020458 13 274 0.0 0.0 0.03 0.15 0.03 78 1006.2
20260507015958 13 274 0.0 0.0 0.03 0.15 0.03 78 1006.2
20260507015458 13 274 0.0 0.0 0.03 0.15 0.03 78 1006.2
20260507014957 13 274 0.0 1.6 0.03 0.15 0.03 78 1006.1
20260507014457 13 236 0.0 0.0 0.03 0.15 0.03 78 1006.1
20260507013957 13 236 0.0 0.0 0.03 0.15 0.03 78 1006.0
20260507013456 13 236 0.0 0.0 0.03 0.15 0.03 78 1006.0
20260507012956 13 236 0.0 0.0 0.03 0.15 0.03 78 1006.0
20260507012456 13 236 0.0 0.0 0.00 0.13 0.00 78 1005.9
20260507011956 13 236 0.0 0.0 0.00 0.13 0.00 78 1005.9
20260507011455 13 236 0.0 0.0 0.00 0.13 0.00 77 1005.8
20260507010955 13 236 0.0 0.0 0.00 0.13 0.00 77 1005.8
20260507010455 13 236 0.0 0.0 0.00 0.13 0.00 77 1005.7
20260507005954 13 236 0.0 0.0 0.00 0.13 0.00 77 1005.7
20260507005454 13 236 0.0 0.0 0.00 0.13 0.00 77 1005.8
20260507004954 13 236 0.0 4.8 0.00 0.13 0.00 76 1005.7
20260507004454 13 216 0.0 3.2 0.00 0.13 0.00 76 1005.8
20260507003953 13 219 0.0 1.6 0.00 0.13 0.00 75 1005.7
20260507003453 13 278 0.0 3.2 0.00 0.13 0.00 75 1005.7
20260507002953 13 230 0.0 0.0 0.00 0.13 0.00 75 1005.7
20260507002452 13 230 0.0 0.0 0.00 0.13 0.00 75 1005.6
20260507001952 13 99 0.0 0.0 0.00 0.13 0.00 75 1005.5
20260507001452 13 99 0.0 0.0 0.00 0.13 0.00 75 1005.5
20260507000952 13 99 0.0 0.0 0.00 0.13 0.00 76 1005.6
20260507000451 13 99 0.0 0.0 0.00 0.13 0.00 76 1005.5
20260506235951 13 99 0.0 0.0 0.00 0.13 0.00 76 1005.6
20260506235451 13 99 0.0 0.0 0.00 0.13 0.00 76 1005.5
20260506234950 13 99 0.0 0.0 0.00 0.13 0.00 76 1005.5
20260506234450 13 99 0.0 6.4 0.00 0.13 0.00 76 1005.5
20260506233950 13 153 4.8 4.8 0.00 0.18 0.00 76 1005.5
20260506233450 13 113 0.0 3.2 0.00 0.18 0.00 77 1005.6
20260506232949 13 21 0.0 4.8 0.00 0.18 0.00 77 1005.5
20260506232449 13 9 3.2 3.2 0.00 0.18 0.00 77 1005.5
20260506231949 13 345 0.0 0.0 0.00 0.18 0.00 77 1005.4
20260506231449 13 345 0.0 0.0 0.00 0.18 0.00 77 1005.3
20260506230948 13 345 0.0 0.0 0.00 0.18 0.00 77 1005.3
20260506230448 13 345 0.0 0.0 0.00 0.18 0.00 77 1005.3
20260506225948 13 345 0.0 0.0 0.00 0.18 0.00 77 1005.2
20260506225447 13 345 0.0 0.0 0.00 0.18 0.00 77 1005.2
20260506224947 13 345 0.0 0.0 0.00 0.18 0.00 77 1005.2
20260506224447 13 345 0.0 4.8 0.00 0.18 0.00 77 1005.2
20260506223947 13 40 0.0 0.0 0.00 0.28 0.00 77 1005.2
20260506223446 13 40 0.0 3.2 0.00 0.28 0.00 77 1005.1
20260506222946 13 61 0.0 0.0 0.00 0.28 0.00 77 1005.1
20260506222446 13 40 0.0 0.0 0.00 0.28 0.00 77 1005.1
20260506221945 13 40 0.0 1.6 0.00 0.28 0.00 77 1005.1
20260506221445 13 87 0.0 3.2 0.00 0.28 0.00 77 1005.1
20260506220945 13 125 0.0 0.0 0.00 0.28 0.00 76 1005.1
20260506220445 13 125 0.0 0.0 0.00 0.28 0.00 77 1005.0
20260506215944 13 125 0.0 0.0 0.00 0.28 0.00 77 1004.9
20260506215444 13 125 0.0 0.0 0.00 0.28 0.00 77 1004.9
20260506214944 13 125 0.0 3.2 0.00 0.28 0.00 77 1005.0
20260506214443 13 87 0.0 0.0 0.00 0.28 0.00 77 1005.0
20260506213943 13 87 0.0 3.2 0.00 0.28 0.00 77 1004.9
20260506213443 13 126 0.0 1.6 0.00 0.28 0.00 77 1004.9
20260506212943 13 99 0.0 1.6 0.00 0.28 0.28 77 1004.8
20260506212442 13 15 1.6 9.7 0.00 0.28 0.28 76 1004.7
20260506211942 13 73 1.6 1.6 0.00 0.28 0.28 77 1004.7
20260506211442 13 78 0.0 0.0 0.00 0.28 0.28 77 1004.8
20260506210941 13 75 0.0 1.6 0.00 0.28 0.28 76 1004.7
20260506210441 13 98 0.0 3.2 0.00 0.28 0.28 76 1004.7
20260506205941 13 28 0.0 0.0 0.00 0.28 0.28 76 1004.7
20260506205441 13 28 0.0 0.0 0.00 0.28 0.28 76 1004.7
20260506204940 14 28 0.0 0.0 0.00 0.28 0.28 77 1004.7
20260506204440 13 28 0.0 0.0 0.00 0.28 0.28 77 1004.6
20260506203940 14 28 0.0 0.0 0.00 0.28 0.28 77 1004.6
20260506203439 13 28 0.0 0.0 0.00 0.28 0.28 77 1004.5
20260506202939 13 28 0.0 4.8 0.00 0.28 0.28 77 1004.5
20260506202439 13 73 0.0 3.2 0.00 0.28 0.28 77 1004.4
20260506201939 14 108 0.0 6.4 0.00 0.28 0.28 77 1004.3
20260506201438 14 120 0.0 3.2 0.00 0.28 0.28 77 1004.3
20260506200938 14 7 0.0 0.0 0.00 0.28 0.28 76 1004.2
20260506200438 14 7 0.0 4.8 0.00 0.28 0.28 76 1004.2
20260506195937 14 149 0.0 0.0 0.00 0.28 0.28 76 1004.1
20260506195437 14 149 0.0 0.0 0.00 0.28 0.28 76 1004.0
20260506194937 14 149 0.0 4.8 0.00 0.28 0.28 76 1004.0
20260506194437 14 147 3.2 4.8 0.00 0.28 0.28 76 1003.9
20260506193936 14 94 0.0 0.0 0.00 0.28 0.28 75 1003.9
20260506193436 14 94 0.0 3.2 0.00 0.28 0.28 75 1003.9
20260506192936 15 350 0.0 3.2 0.00 0.28 0.28 75 1003.9
20260506192435 15 18 1.6 3.2 0.00 0.28 0.28 75 1003.8
20260506191935 15 7 0.0 3.2 0.00 0.28 0.28 75 1003.7
20260506191435 15 133 0.0 0.0 0.00 0.28 0.28 75 1003.6
20260506190935 15 133 0.0 0.0 0.00 0.28 0.28 75 1003.5
20260506190434 15 133 0.0 1.6 0.00 0.28 0.28 75 1003.4
20260506185934 15 104 0.0 0.0 0.00 0.28 0.28 76 1003.3
20260506185434 15 104 0.0 0.0 0.00 0.28 0.28 76 1003.2
20260506184933 15 104 0.0 0.0 0.00 0.28 0.28 76 1003.1
20260506184433 15 104 0.0 1.6 0.00 0.28 0.28 77 1003.0
20260506183933 15 123 0.0 3.2 0.00 0.28 0.28 77 1002.9
20260506183433 15 106 0.0 0.0 0.00 0.28 0.28 77 1002.8
20260506182932 15 106 0.0 6.4 0.00 0.28 0.28 76 1002.8
20260506182432 15 132 0.0 8.0 0.00 0.28 0.28 76 1002.7
20260506181932 15 90 3.2 8.0 0.00 0.28 0.28 76 1002.8
20260506181431 15 101 0.0 9.7 0.00 0.28 0.28 77 1002.7
20260506180931 15 229 0.0 4.8 0.00 0.28 0.28 77 1002.7
20260506180431 15 161 0.0 9.7 0.00 0.28 0.28 77 1002.7
20260506175931 15 161 3.2 12.9 0.00 0.28 0.28 77 1002.6
20260506175430 15 170 8.0 12.9 0.00 0.28 0.28 76 1002.6
20260506174930 15 201 1.6 11.3 0.00 0.28 0.28 76 1002.5
20260506174430 15 168 4.8 12.9 0.00 0.28 0.28 76 1002.5
20260506173929 15 149 4.8 8.0 0.00 0.28 0.28 76 1002.5
20260506173429 15 135 1.6 8.0 0.00 0.28 0.28 76 1002.4
20260506172929 16 68 6.4 11.3 0.00 0.28 0.28 76 1002.4
20260506172429 16 95 8.0 9.7 0.03 0.28 0.28 76 1002.4
20260506171928 16 102 6.4 11.3 0.03 0.28 0.28 76 1002.3
20260506171428 16 153 3.2 11.3 0.03 0.28 0.28 76 1002.2
20260506170928 16 120 0.0 4.8 0.03 0.28 0.28 76 1002.1
20260506170428 16 120 0.0 12.9 0.05 0.28 0.28 76 1002.1
20260506165927 16 142 1.6 8.0 0.08 0.28 0.28 77 1002.1
20260506165427 16 163 3.2 8.0 0.08 0.28 0.28 77 1002.0
20260506164927 16 126 6.4 9.7 0.08 0.28 0.28 76 1002.0